[[{"header":{"parameterUnit":"m.s-1","parameterCategory":1,"la1":30.2992,"la2":30.254,"lo1":-89.0895,"lo2":-89.0443,"dy":0.0025,"dx":0.0025,"nx":19,"ny":19,"refTime":"2026-04-27T21:00:00:Z","depth":0,"parameterNumber":2,"parameterNumberName":"U-component_of_WINDS"},"data":[0,0,0,-2.7469,-2.7472,-2.7635,-2.7635,-2.7835,-2.7837,0,0,0,0,0,0,0,0,0,0,0,-2.7414,-2.7415,-2.7468,-2.7472,-2.7635,-2.7635,-2.7835,-2.7837,0,0,0,0,0,0,0,0,0,0,0,-2.7414,-2.7415,-2.7416,-2.7473,-2.7635,-2.7636,-2.7835,-2.7715,0,0,0,0,0,0,0,0,0,0,-2.7559,-2.7502,-2.7415,-2.7416,-2.7474,-2.7634,-2.7636,-2.771,-2.7723,-2.7758,0,-2.7786,0,-2.7815,-2.785,-2.7851,0,0,0,-2.7477,-2.7491,-2.754,-2.7417,-2.7475,-2.7634,-2.7563,-2.7717,-2.7732,-2.7775,-2.7789,-2.7797,-2.7818,-2.7851,-2.7852,-2.8035,-2.8035,0,0,-2.7468,-2.744,-2.753,-2.755,-2.7522,-2.7558,-2.7568,-2.7726,-2.774,-2.779,-2.7802,-2.7821,-2.7852,-2.7854,-2.8034,-2.8035,0,0,0,-2.7439,-2.7434,-2.748,-2.7541,-2.7571,-2.7562,-2.7574,-2.7733,-2.775,-2.7804,-2.7824,-2.7853,-2.7856,-2.8034,-2.8035,-2.8036,0,0,0,-2.7434,-2.7417,-2.7475,-2.746,-2.7568,-2.7654,-2.7577,-2.7739,-2.7758,-2.7823,-2.7854,-2.7858,-2.8033,-2.8034,-2.8035,-2.8042,0,0,0,-2.7406,-2.7414,-2.7435,-2.7458,-2.7527,-2.7652,-2.7678,-2.7744,-2.777,-2.7851,-2.7858,-2.8033,-2.8034,-2.8034,-2.804,-2.8081,0,0,0,-2.7368,-2.7435,-2.7434,-2.7518,-2.7525,-2.7652,-2.7678,-2.7774,-2.7843,-2.7854,-2.8033,-2.8034,-2.8033,-2.8038,-2.8079,-2.8109,-2.8119,0,0,-2.7437,-2.7443,-2.7494,-2.7498,-2.7617,-2.7629,-2.775,-2.7841,-2.7875,-2.798,-2.7985,-2.8035,-2.8039,-2.808,-2.8188,-2.8195,0,0,0,-2.7506,-2.7543,-2.758,-2.7645,-2.7715,-2.7776,-2.7852,-2.7886,-2.7976,-2.7923,-2.8063,-2.8066,-2.8091,-2.8107,-2.8114,-2.8137,-2.8041,-2.8041,-2.8041,-2.7564,-2.7603,-2.769,-2.7749,-2.7811,-2.7888,-2.7943,-2.8002,-2.8024,-2.8057,-2.8088,-2.8148,-2.8165,-2.817,-2.8194,-2.8108,-2.8108,-2.8108,-2.8108,-2.7668,-2.7725,-2.7753,-2.7847,-2.7889,-2.7969,-2.8047,-2.806,-2.8141,-2.8128,-2.8152,-2.8133,-2.8177,-2.82,-2.8109,-2.8109,-2.8109,-2.8108,-2.8108,-2.7709,-2.7743,-2.7782,-2.7879,-2.795,-2.8008,-2.8085,-2.8121,-2.8155,-2.8179,-2.8215,-2.8215,-2.8219,-2.8194,-2.8195,-2.8195,-2.8195,-2.8195,-2.8195,-2.7735,-2.7779,-2.7838,-2.7919,-2.7964,-2.803,-2.8109,-2.8156,-2.8217,-2.8237,-2.8237,-2.8256,-2.8175,-2.8153,-2.8199,-2.8198,-2.8198,-2.8197,-2.8197,-2.7823,-2.7809,-2.79,-2.7946,-2.8043,-2.8111,-2.8156,-2.8248,-2.8293,-2.8329,-2.8344,-2.8278,-2.8286,-2.8281,-2.8263,-2.8335,-2.8335,-2.8335,-2.8335,-2.7857,-2.7864,-2.7965,-2.8036,-2.811,-2.816,-2.8262,-2.8325,-2.8388,-2.8418,-2.8413,-2.8393,-2.8386,-2.8398,-2.8391,-2.8374,-2.8473,-2.8473,-2.8473,-2.7913,-2.7929,-2.8009,-2.8068,-2.8147,-2.8215,-2.8312,-2.8394,-2.8462,-2.848,-2.8442,-2.8436,-2.8404,-2.8391,-2.8406,-2.8393,-2.8364,0,0]},{"header":{"parameterUnit":"m.s-1","parameterCategory":1,"la1":30.2992,"la2":30.254,"lo1":-89.0895,"lo2":-89.0443,"dy":0.0025,"dx":0.0025,"nx":19,"ny":19,"refTime":"2026-04-27T21:00:00:Z","depth":0,"parameterNumber":3,"parameterNumberName":"V-component_of_WINDS"},"data":[0,0,0,4.8699,4.87,4.8767,4.8767,4.8856,4.8857,0,0,0,0,0,0,0,0,0,0,0,4.8683,4.8684,4.8698,4.87,4.8767,4.8767,4.8856,4.8857,0,0,0,0,0,0,0,0,0,0,0,4.8683,4.8684,4.8685,4.8701,4.8767,4.8767,4.8856,4.8803,0,0,0,0,0,0,0,0,0,0,4.8738,4.8729,4.8684,4.8685,4.8701,4.8767,4.8767,4.8801,4.8807,4.8828,0,4.8851,0,4.8855,4.8863,4.8864,0,0,0,4.8696,4.8724,4.8738,4.8685,4.8702,4.8766,4.8735,4.8804,4.8811,4.8836,4.8852,4.8855,4.8857,4.8864,4.8864,4.9007,4.9008,0,0,4.8692,4.8697,4.8734,4.8743,4.8735,4.8733,4.8738,4.8808,4.8825,4.8852,4.8857,4.8858,4.8865,4.8865,4.9007,4.9008,0,0,0,4.8685,4.8695,4.8707,4.8739,4.8751,4.8735,4.874,4.8821,4.8825,4.8858,4.8859,4.8865,4.8866,4.9006,4.9007,4.9055,0,0,0,4.8682,4.869,4.8706,4.8709,4.875,4.8788,4.8752,4.882,4.8828,4.8859,4.8865,4.8867,4.9005,4.9006,4.9051,4.9076,0,0,0,4.8677,4.869,4.8701,4.8709,4.8739,4.8786,4.8794,4.8822,4.8829,4.8864,4.8867,4.9004,4.9006,4.9048,4.9071,4.9115,0,0,0,4.8673,4.8742,4.8702,4.8779,4.8738,4.8816,4.8793,4.8851,4.8886,4.8866,4.9005,4.9007,4.9047,4.9068,4.9111,4.9152,4.9169,0,0,4.8762,4.8753,4.8798,4.8764,4.8851,4.8806,4.8899,4.8925,4.8923,4.8979,4.8982,4.9052,4.907,4.9114,4.9268,4.9282,0,0,0,4.8828,4.886,4.8882,4.8917,4.894,4.8962,4.8974,4.8984,4.9031,4.8954,4.908,4.9091,4.9116,4.9135,4.9147,4.9168,4.9016,4.9016,4.9016,4.896,4.8955,4.9029,4.9032,4.9066,4.9079,4.9105,4.912,4.9104,4.9134,4.915,4.9244,4.9267,4.9276,4.9298,4.9172,4.9172,4.9172,4.9172,4.909,4.9134,4.9113,4.9177,4.917,4.9223,4.9237,4.9224,4.9271,4.9232,4.9254,4.921,4.9292,4.931,4.9176,4.9175,4.9175,4.9174,4.9174,4.9175,4.9195,4.9208,4.9258,4.9296,4.9297,4.9343,4.9336,4.9328,4.935,4.9366,4.9365,4.9362,4.9358,4.9359,4.9359,4.9359,4.936,4.936,4.9258,4.9271,4.9312,4.9343,4.9364,4.9391,4.9405,4.9425,4.9445,4.9435,4.9435,4.9415,4.9301,4.9272,4.9365,4.9364,4.9363,4.9363,4.9362,4.939,4.9359,4.9423,4.9445,4.948,4.9518,4.9509,4.955,4.9566,4.9588,4.9565,4.9482,4.947,4.9461,4.9437,4.9566,4.9566,4.9566,4.9566,4.9461,4.9455,4.9519,4.9554,4.9587,4.9585,4.9655,4.9666,4.9671,4.968,4.9661,4.9628,4.9619,4.9613,4.96,4.9577,4.974,4.974,4.974,4.9541,4.9538,4.9601,4.9608,4.9635,4.9658,4.9724,4.9763,4.9763,4.9747,4.9687,4.9679,4.9627,4.961,4.9592,4.9572,4.953,0,0]}]]